Time,TemperatureF,DewpointF,PressureIn,WindDirection,WindDirectionDegrees,WindSpeedMPH,WindSpeedGustMPH,Humidity,HourlyPrecipIn,Conditions,Clouds,dailyrainin,SoftwareType,DateUTC
2013-04-16 00:00:00,39.7,3.0,30.01,East,101,0.0,0.0,21,0.00,,---,0.00,VWS V13.01,2013-04-16 04:00:00,
2013-04-16 00:01:00,39.7,3.0,30.01,East,101,0.0,0.0,21,0.00,,---,0.00,VWS V13.01,2013-04-16 04:01:00,
2013-04-16 00:02:00,39.7,3.0,30.01,East,101,0.0,0.0,21,0.00,,---,0.00,VWS V13.01,2013-04-16 04:02:00,
2013-04-16 00:07:00,39.7,3.0,30.01,East,101,0.0,0.0,21,0.00,,---,0.00,VWS V13.01,2013-04-16 04:07:00,
2013-04-16 00:12:00,39.6,2.9,30.01,East,101,0.0,0.0,21,0.00,,---,0.00,VWS V13.01,2013-04-16 04:12:00,
2013-04-16 00:17:00,39.4,2.7,30.01,East,101,0.0,0.0,21,0.00,,---,0.00,VWS V13.01,2013-04-16 04:17:00,
2013-04-16 00:22:00,39.2,2.6,30.01,East,101,0.0,0.0,21,0.00,,---,0.00,VWS V13.01,2013-04-16 04:22:00,
2013-04-16 00:27:00,39.2,2.6,30.01,East,101,0.0,0.0,21,0.00,,---,0.00,VWS V13.01,2013-04-16 04:27:00,
2013-04-16 00:32:00,38.8,2.3,30.01,East,101,0.0,0.0,21,0.00,,---,0.00,VWS V13.01,2013-04-16 04:32:00,
2013-04-16 00:37:00,38.8,5.2,30.01,East,101,0.0,0.0,24,0.00,,---,0.00,VWS V13.01,2013-04-16 04:37:00,
2013-04-16 00:42:00,38.7,5.0,30.01,East,101,0.0,0.0,24,0.00,,---,0.00,VWS V13.01,2013-04-16 04:42:00,
2013-04-16 00:48:00,38.7,5.0,30.01,East,101,0.0,0.0,24,0.00,,---,0.00,VWS V13.01,2013-04-16 04:48:00,
2013-04-16 00:53:00,38.7,5.0,30.01,East,101,0.0,0.0,24,0.00,,---,0.00,VWS V13.01,2013-04-16 04:53:00,
2013-04-16 00:58:00,38.5,4.8,30.01,East,101,0.0,0.0,24,0.00,,---,0.00,VWS V13.01,2013-04-16 04:58:00,
2013-04-16 01:03:00,38.5,4.8,30.01,East,101,0.0,0.0,24,0.00,,---,0.00,VWS V13.01,2013-04-16 05:03:00,
2013-04-16 01:08:00,38.5,4.8,30.01,East,101,0.0,0.0,24,0.00,,---,0.00,VWS V13.01,2013-04-16 05:08:00,
2013-04-16 01:13:00,38.3,6.4,30.01,East,101,0.0,0.0,26,0.00,,---,0.00,VWS V13.01,2013-04-16 05:13:00,
2013-04-16 01:18:00,38.1,6.3,30.01,East,101,0.0,0.0,26,0.00,,---,0.00,VWS V13.01,2013-04-16 05:18:00,
2013-04-16 01:23:00,37.9,6.1,30.01,East,101,0.0,0.0,26,0.00,,---,0.00,VWS V13.01,2013-04-16 05:23:00,
2013-04-16 01:29:00,37.9,6.1,30.01,East,101,0.0,0.0,26,0.00,,---,0.00,VWS V13.01,2013-04-16 05:29:00,
2013-04-16 01:34:00,37.8,6.0,30.01,East,101,0.0,0.0,26,0.00,,---,0.00,VWS V13.01,2013-04-16 05:34:00,
2013-04-16 01:39:00,37.6,8.2,30.01,East,101,0.0,0.0,29,0.00,,---,0.00,VWS V13.01,2013-04-16 05:39:00,
2013-04-16 01:44:00,37.4,8.1,30.01,East,101,0.0,0.0,29,0.00,,---,0.00,VWS V13.01,2013-04-16 05:44:00,
2013-04-16 01:49:00,37.2,7.9,30.01,East,101,0.0,0.0,29,0.00,,---,0.00,VWS V13.01,2013-04-16 05:49:00,
2013-04-16 01:54:00,37.2,8.6,30.01,East,101,0.0,0.0,30,0.00,,---,0.00,VWS V13.01,2013-04-16 05:54:00,
2013-04-16 01:59:00,37.0,8.5,30.01,East,101,0.0,0.0,30,0.00,,---,0.00,VWS V13.01,2013-04-16 05:59:00,
2013-04-16 02:04:00,36.9,8.3,30.01,East,101,0.0,0.0,30,0.00,,---,0.00,VWS V13.01,2013-04-16 06:04:00,
2013-04-16 02:09:00,36.7,8.2,30.01,East,101,0.0,0.0,30,0.00,,---,0.00,VWS V13.01,2013-04-16 06:09:00,
2013-04-16 02:15:00,36.5,8.0,29.98,East,101,0.0,0.0,30,0.00,,---,0.00,VWS V13.01,2013-04-16 06:15:00,
2013-04-16 02:20:00,36.3,7.9,29.98,East,101,0.0,0.0,30,0.00,,---,0.00,VWS V13.01,2013-04-16 06:20:00,
2013-04-16 02:25:00,36.3,7.9,29.98,East,101,0.0,0.0,30,0.00,,---,0.00,VWS V13.01,2013-04-16 06:25:00,
2013-04-16 02:30:00,36.3,7.9,30.01,East,101,0.0,0.0,30,0.00,,---,0.00,VWS V13.01,2013-04-16 06:30:00,
2013-04-16 02:35:00,36.1,7.7,30.01,East,101,0.0,0.0,30,0.00,,---,0.00,VWS V13.01,2013-04-16 06:35:00,
2013-04-16 02:40:00,36.1,8.4,30.01,East,101,0.0,0.0,31,0.00,,---,0.00,VWS V13.01,2013-04-16 06:40:00,
2013-04-16 02:45:00,36.1,8.4,30.01,East,101,0.0,0.0,31,0.00,,---,0.00,VWS V13.01,2013-04-16 06:45:00,
2013-04-16 02:50:00,36.1,8.4,30.01,East,101,0.0,0.0,31,0.00,,---,0.00,VWS V13.01,2013-04-16 06:50:00,
2013-04-16 02:55:00,36.1,8.4,30.01,East,101,0.0,0.0,31,0.00,,---,0.00,VWS V13.01,2013-04-16 06:55:00,
2013-04-16 03:00:00,36.1,8.4,30.01,East,101,0.0,0.0,31,0.00,,---,0.00,VWS V13.01,2013-04-16 07:00:00,
2013-04-16 03:05:00,36.5,8.8,30.01,East,101,0.0,0.0,31,0.00,,---,0.00,VWS V13.01,2013-04-16 07:05:00,
2013-04-16 03:10:00,36.7,8.9,30.01,East,101,0.0,0.0,31,0.00,,---,0.00,VWS V13.01,2013-04-16 07:10:00,
2013-04-16 03:15:00,37.0,9.2,29.98,East,101,0.0,0.0,31,0.00,,---,0.00,VWS V13.01,2013-04-16 07:15:00,
2013-04-16 03:20:00,37.4,9.5,29.98,East,101,0.0,0.0,31,0.00,,---,0.00,VWS V13.01,2013-04-16 07:20:00,
2013-04-16 03:25:00,37.6,9.7,29.98,East,101,0.0,0.0,31,0.00,,---,0.00,VWS V13.01,2013-04-16 07:25:00,
2013-04-16 03:31:00,37.9,10.0,30.01,East,101,0.0,0.0,31,0.00,,---,0.00,VWS V13.01,2013-04-16 07:31:00,
2013-04-16 03:35:00,37.9,9.3,30.01,East,101,0.0,0.0,30,0.00,,---,0.00,VWS V13.01,2013-04-16 07:35:00,
2013-04-16 03:41:00,37.8,9.1,30.01,East,101,0.0,0.0,30,0.00,,---,0.00,VWS V13.01,2013-04-16 07:41:00,
2013-04-16 03:54:00,37.9,9.3,30.01,East,101,0.0,0.0,30,0.00,,---,0.00,VWS V13.01,2013-04-16 07:54:00,
2013-04-16 03:59:00,38.1,9.4,30.01,East,101,0.0,0.0,30,0.00,,---,0.00,VWS V13.01,2013-04-16 07:59:00,
2013-04-16 04:04:00,38.5,9.8,30.01,East,101,0.0,0.0,30,0.00,,---,0.00,VWS V13.01,2013-04-16 08:04:00,
2013-04-16 04:10:00,38.7,9.9,30.01,East,101,0.0,0.0,30,0.00,,---,0.00,VWS V13.01,2013-04-16 08:10:00,
2013-04-16 04:15:00,38.7,9.9,30.01,East,101,0.0,0.0,30,0.00,,---,0.00,VWS V13.01,2013-04-16 08:15:00,
2013-04-16 04:20:00,38.7,9.9,30.01,East,101,0.0,0.0,30,0.00,,---,0.00,VWS V13.01,2013-04-16 08:20:00,
2013-04-16 04:25:00,38.7,9.9,30.01,East,101,0.0,0.0,30,0.00,,---,0.00,VWS V13.01,2013-04-16 08:25:00,
2013-04-16 04:30:00,38.8,10.1,30.01,East,101,0.0,0.0,30,0.00,,---,0.00,VWS V13.01,2013-04-16 08:30:00,
2013-04-16 04:35:00,38.8,10.1,30.01,East,101,0.0,0.0,30,0.00,,---,0.00,VWS V13.01,2013-04-16 08:35:00,
2013-04-16 04:40:00,39.0,10.2,30.01,East,101,0.0,0.0,30,0.00,,---,0.00,VWS V13.01,2013-04-16 08:40:00,
2013-04-16 04:45:00,39.0,10.2,30.01,East,101,0.0,0.0,30,0.00,,---,0.00,VWS V13.01,2013-04-16 08:45:00,
2013-04-16 04:50:00,39.2,10.4,30.01,East,101,0.0,0.0,30,0.00,,---,0.00,VWS V13.01,2013-04-16 08:50:00,
2013-04-16 04:56:00,39.2,10.4,30.01,East,101,0.0,0.0,30,0.00,,---,0.00,VWS V13.01,2013-04-16 08:56:00,
2013-04-16 05:01:00,39.2,10.4,30.01,East,101,0.0,0.0,30,0.00,,---,0.00,VWS V13.01,2013-04-16 09:01:00,
2013-04-16 05:06:00,39.4,10.5,30.01,East,101,0.0,0.0,30,0.00,,---,0.00,VWS V13.01,2013-04-16 09:06:00,
2013-04-16 05:11:00,39.4,10.5,30.01,East,101,0.0,0.0,30,0.00,,---,0.00,VWS V13.01,2013-04-16 09:11:00,
2013-04-16 05:16:00,39.4,10.5,30.01,East,101,0.0,0.0,30,0.00,,---,0.00,VWS V13.01,2013-04-16 09:16:00,
2013-04-16 05:21:00,39.4,10.5,30.01,East,101,0.0,0.0,30,0.00,,---,0.00,VWS V13.01,2013-04-16 09:21:00,
2013-04-16 05:26:00,39.4,10.5,30.01,East,101,0.0,0.0,30,0.00,,---,0.00,VWS V13.01,2013-04-16 09:26:00,
2013-04-16 05:31:00,39.4,10.5,29.98,East,101,0.0,0.0,30,0.00,,---,0.00,VWS V13.01,2013-04-16 09:31:00,
2013-04-16 05:36:00,39.2,10.4,29.98,East,101,0.0,0.0,30,0.00,,---,0.00,VWS V13.01,2013-04-16 09:36:00,
2013-04-16 05:41:00,39.2,10.4,29.98,East,101,0.0,0.0,30,0.00,,---,0.00,VWS V13.01,2013-04-16 09:41:00,
2013-04-16 05:47:00,39.2,10.4,30.01,East,101,0.0,0.0,30,0.00,,---,0.00,VWS V13.01,2013-04-16 09:47:00,
2013-04-16 05:52:00,39.4,10.5,30.01,East,101,0.0,0.0,30,0.00,,---,0.00,VWS V13.01,2013-04-16 09:52:00,
2013-04-16 05:57:00,39.4,10.5,30.01,East,101,0.0,0.0,30,0.00,,---,0.00,VWS V13.01,2013-04-16 09:57:00,
2013-04-16 06:02:00,39.4,10.5,29.98,East,101,0.0,0.0,30,0.00,,---,0.00,VWS V13.01,2013-04-16 10:02:00,
2013-04-16 06:07:00,39.4,10.5,29.98,East,101,0.0,0.0,30,0.00,,---,0.00,VWS V13.01,2013-04-16 10:07:00,
2013-04-16 06:12:00,39.4,10.5,29.98,East,101,0.0,0.0,30,0.00,,---,0.00,VWS V13.01,2013-04-16 10:12:00,
2013-04-16 06:17:00,39.4,10.5,30.01,East,101,0.0,0.0,30,0.00,,---,0.00,VWS V13.01,2013-04-16 10:17:00,
2013-04-16 06:22:00,39.7,10.9,30.01,East,101,0.0,0.0,30,0.00,,---,0.00,VWS V13.01,2013-04-16 10:22:00,
2013-04-16 06:27:00,39.9,11.0,30.01,East,101,0.0,0.0,30,0.00,,---,0.00,VWS V13.01,2013-04-16 10:27:00,
2013-04-16 06:33:00,40.1,11.2,30.01,East,101,0.0,0.0,30,0.00,,---,0.00,VWS V13.01,2013-04-16 10:33:00,
2013-04-16 06:38:00,40.5,12.2,30.01,East,101,0.0,0.0,31,0.00,,---,0.00,VWS V13.01,2013-04-16 10:38:00,
2013-04-16 06:43:00,40.6,12.4,30.01,East,101,0.0,0.0,31,0.00,,---,0.00,VWS V13.01,2013-04-16 10:43:00,
2013-04-16 06:48:00,40.8,12.5,29.98,East,101,0.0,0.0,31,0.00,,---,0.00,VWS V13.01,2013-04-16 10:48:00,
2013-04-16 06:53:00,41.2,12.9,29.98,East,101,0.0,0.0,31,0.00,,---,0.00,VWS V13.01,2013-04-16 10:53:00,
2013-04-16 06:58:00,41.7,14.1,29.98,East,101,0.0,0.0,32,0.00,,---,0.00,VWS V13.01,2013-04-16 10:58:00,
2013-04-16 07:03:00,42.1,14.4,29.98,East,101,0.0,0.0,32,0.00,,---,0.00,VWS V13.01,2013-04-16 11:03:00,
2013-04-16 07:08:00,42.4,14.7,29.98,East,101,0.0,0.0,32,0.00,,---,0.00,VWS V13.01,2013-04-16 11:08:00,
2013-04-16 07:13:00,43.0,15.9,29.98,East,101,0.0,0.0,33,0.00,,---,0.00,VWS V13.01,2013-04-16 11:13:00,
2013-04-16 07:18:00,43.5,16.3,30.01,East,101,0.0,0.0,33,0.00,,---,0.00,VWS V13.01,2013-04-16 11:18:00,
2013-04-16 07:23:00,43.7,17.2,30.01,ENE,77,0.0,0.0,34,0.00,,---,0.00,VWS V13.01,2013-04-16 11:23:00,
2013-04-16 07:28:00,44.1,17.5,30.01,East,83,0.0,0.0,34,0.00,,---,0.00,VWS V13.01,2013-04-16 11:28:00,
2013-04-16 07:33:00,44.4,17.1,30.01,East,96,0.0,0.0,33,0.00,,---,0.00,VWS V13.01,2013-04-16 11:33:00,
2013-04-16 07:38:00,44.8,16.7,30.01,East,87,0.0,0.0,32,0.00,,---,0.00,VWS V13.01,2013-04-16 11:38:00,
2013-04-16 07:44:00,45.1,17.1,30.01,NE,41,0.0,0.0,32,0.00,,---,0.00,VWS V13.01,2013-04-16 11:44:00,
2013-04-16 07:49:00,45.3,16.5,30.01,SSE,147,0.0,0.0,31,0.00,,---,0.00,VWS V13.01,2013-04-16 11:49:00,
2013-04-16 07:54:00,45.7,16.0,30.01,ENE,70,0.0,0.0,30,0.00,,---,0.00,VWS V13.01,2013-04-16 11:54:00,
2013-04-16 07:59:00,46.0,16.4,30.01,East,100,0.0,0.0,30,0.00,,---,0.00,VWS V13.01,2013-04-16 11:59:00,
2013-04-16 08:04:00,46.4,15.9,30.01,SE,131,0.0,0.0,29,0.00,,---,0.00,VWS V13.01,2013-04-16 12:04:00,
2013-04-16 08:09:00,46.9,16.4,30.01,SE,125,0.0,0.0,29,0.00,,---,0.00,VWS V13.01,2013-04-16 12:09:00,
2013-04-16 08:14:00,47.1,15.7,30.01,East,82,0.0,0.0,28,0.00,,---,0.00,VWS V13.01,2013-04-16 12:14:00,
2013-04-16 08:19:00,47.5,16.0,30.01,ENE,72,0.0,0.0,28,0.00,,---,0.00,VWS V13.01,2013-04-16 12:19:00,
2013-04-16 08:24:00,47.7,16.2,30.01,SSW,195,0.0,0.0,28,0.00,,---,0.00,VWS V13.01,2013-04-16 12:24:00,
2013-04-16 08:30:00,47.8,15.5,30.01,ENE,72,0.0,3.1,27,0.00,,---,0.00,VWS V13.01,2013-04-16 12:30:00,
2013-04-16 08:35:00,48.0,15.6,30.01,SSE,160,0.0,3.1,27,0.00,,---,0.00,VWS V13.01,2013-04-16 12:35:00,
2013-04-16 08:40:00,48.6,16.1,30.01,SSE,158,0.0,0.0,27,0.00,,---,0.00,VWS V13.01,2013-04-16 12:40:00,
2013-04-16 08:45:00,49.3,15.9,30.01,SSE,157,0.0,0.0,26,0.00,,---,0.00,VWS V13.01,2013-04-16 12:45:00,
2013-04-16 08:50:00,50.7,15.3,30.01,SSW,210,0.0,0.0,24,0.00,,---,0.00,VWS V13.01,2013-04-16 12:50:00,
2013-04-16 08:55:00,51.3,12.7,30.01,SSW,192,0.0,2.7,21,0.00,,---,0.00,VWS V13.01,2013-04-16 12:55:00,
2013-04-16 09:00:00,53.6,11.1,29.98,West,276,0.0,0.0,18,0.00,,---,0.00,VWS V13.01,2013-04-16 13:00:00,
2013-04-16 09:05:00,57.0,12.7,29.98,SSE,158,0.0,0.0,17,0.00,,---,0.00,VWS V13.01,2013-04-16 13:05:00,
2013-04-16 09:10:00,60.3,15.3,29.98,SSW,205,0.0,0.0,17,0.00,,---,0.00,VWS V13.01,2013-04-16 13:10:00,
2013-04-16 09:15:00,61.5,14.9,29.98,South,169,0.0,0.0,16,0.00,,---,0.00,VWS V13.01,2013-04-16 13:15:00,
2013-04-16 09:20:00,60.6,11.2,30.01,West,268,0.0,0.0,14,0.00,,---,0.00,VWS V13.01,2013-04-16 13:20:00,
2013-04-16 09:25:00,60.3,10.9,30.01,ESE,120,0.0,4.7,14,0.00,,---,0.00,VWS V13.01,2013-04-16 13:25:00,
2013-04-16 09:30:00,60.1,10.8,30.01,WSW,256,3.1,4.7,14,0.00,,---,0.00,VWS V13.01,2013-04-16 13:30:00,
2013-04-16 09:35:00,59.4,10.2,30.01,SSE,157,0.0,4.7,14,0.00,,---,0.00,VWS V13.01,2013-04-16 13:35:00,
2013-04-16 09:40:00,61.5,11.9,30.01,SSE,164,0.0,0.0,14,0.00,,---,0.00,VWS V13.01,2013-04-16 13:40:00,
2013-04-16 09:46:00,62.2,12.5,30.01,SE,135,0.0,0.0,14,0.00,,---,0.00,VWS V13.01,2013-04-16 13:46:00,
2013-04-16 09:51:00,63.0,11.4,30.01,NE,51,0.0,0.0,13,0.00,,---,0.00,VWS V13.01,2013-04-16 13:51:00,
2013-04-16 09:56:00,60.4,11.0,30.01,ESE,118,0.0,4.5,14,0.00,,---,0.00,VWS V13.01,2013-04-16 13:56:00,
2013-04-16 10:01:00,58.8,9.8,29.98,SE,143,0.0,2.7,14,0.00,,---,0.00,VWS V13.01,2013-04-16 14:01:00,
2013-04-16 10:06:00,60.1,10.8,29.98,WSW,249,0.0,4.7,14,0.00,,---,0.00,VWS V13.01,2013-04-16 14:06:00,
2013-04-16 10:11:00,60.1,10.8,29.98,SE,135,0.0,4.7,14,0.00,,---,0.00,VWS V13.01,2013-04-16 14:11:00,
2013-04-16 10:16:00,58.8,9.8,29.98,SSW,208,0.0,5.6,14,0.00,,---,0.00,VWS V13.01,2013-04-16 14:16:00,
2013-04-16 10:21:00,58.1,9.2,29.98,South,184,0.0,4.7,14,0.00,,---,0.00,VWS V13.01,2013-04-16 14:21:00,
2013-04-16 10:26:00,57.9,9.0,29.98,SSE,154,2.7,4.7,14,0.00,,---,0.00,VWS V13.01,2013-04-16 14:26:00,
2013-04-16 10:31:00,58.6,9.6,29.98,SSW,212,0.0,6.0,14,0.00,,---,0.00,VWS V13.01,2013-04-16 14:31:00,
2013-04-16 10:37:00,58.6,9.6,29.98,SW,231,0.0,6.5,14,0.00,,---,0.00,VWS V13.01,2013-04-16 14:37:00,
2013-04-16 10:42:00,59.2,10.0,29.98,SSE,153,2.7,4.5,14,0.00,,---,0.00,VWS V13.01,2013-04-16 14:42:00,
2013-04-16 10:47:00,59.2,10.0,29.98,SW,225,0.0,4.5,14,0.00,,---,0.00,VWS V13.01,2013-04-16 14:47:00,
2013-04-16 10:52:00,60.1,10.8,29.98,ENE,68,0.0,8.3,14,0.00,,---,0.00,VWS V13.01,2013-04-16 14:52:00,
2013-04-16 10:57:00,60.8,11.3,29.98,East,80,0.0,8.3,14,0.00,,---,0.00,VWS V13.01,2013-04-16 14:57:00,
2013-04-16 11:02:00,61.3,14.8,29.98,West,261,4.7,4.7,16,0.00,,---,0.00,VWS V13.01,2013-04-16 15:02:00,
2013-04-16 11:07:00,62.1,15.4,29.98,East,97,0.0,5.6,16,0.00,,---,0.00,VWS V13.01,2013-04-16 15:07:00,
2013-04-16 11:12:00,62.1,12.3,29.98,ESE,111,0.0,5.6,14,0.00,,---,0.00,VWS V13.01,2013-04-16 15:12:00,
2013-04-16 11:17:00,63.3,11.7,29.98,ESE,114,0.0,5.6,13,0.00,,---,0.00,VWS V13.01,2013-04-16 15:17:00,
2013-04-16 11:22:00,65.7,13.5,29.98,East,85,0.0,5.6,13,0.00,,---,0.00,VWS V13.01,2013-04-16 15:22:00,
2013-04-16 11:27:00,64.2,12.4,29.98,SE,142,0.0,5.6,13,0.00,,---,0.00,VWS V13.01,2013-04-16 15:27:00,
2013-04-16 11:32:00,63.7,11.9,29.95,ESE,116,0.0,5.6,13,0.00,,---,0.00,VWS V13.01,2013-04-16 15:32:00,
2013-04-16 11:37:00,64.6,12.7,29.95,ESE,104,4.0,6.0,13,0.00,,---,0.00,VWS V13.01,2013-04-16 15:37:00,
2013-04-16 11:43:00,64.2,12.4,29.95,West,259,4.5,6.0,13,0.00,,---,0.00,VWS V13.01,2013-04-16 15:43:00,
2013-04-16 11:48:00,63.0,11.4,29.95,SSE,157,0.0,6.0,13,0.00,,---,0.00,VWS V13.01,2013-04-16 15:48:00,
2013-04-16 11:53:00,63.3,11.7,29.95,East,96,0.0,6.0,13,0.00,,---,0.00,VWS V13.01,2013-04-16 15:53:00,
2013-04-16 11:58:00,64.0,12.2,29.95,East,100,0.0,9.8,13,0.00,,---,0.00,VWS V13.01,2013-04-16 15:58:00,
2013-04-16 12:03:00,65.1,13.1,29.95,SSE,154,0.0,6.5,13,0.00,,---,0.00,VWS V13.01,2013-04-16 16:03:00,
2013-04-16 12:08:00,66.2,12.1,29.95,SSE,166,0.0,6.5,12,0.00,,---,0.00,VWS V13.01,2013-04-16 16:08:00,
2013-04-16 12:13:00,67.8,13.4,29.95,SW,231,0.0,8.3,12,0.00,,---,0.00,VWS V13.01,2013-04-16 16:13:00,
2013-04-16 12:18:00,68.4,19.0,29.95,SE,132,0.0,8.3,15,0.00,,---,0.00,VWS V13.01,2013-04-16 16:18:00,
2013-04-16 12:23:00,66.7,12.5,29.95,SSE,167,0.0,4.7,12,0.00,,---,0.00,VWS V13.01,2013-04-16 16:23:00,
2013-04-16 12:28:00,67.6,18.4,29.95,WSW,248,8.7,8.7,15,0.00,,---,0.00,VWS V13.01,2013-04-16 16:28:00,
2013-04-16 12:33:00,66.7,12.5,29.92,SE,142,3.1,8.7,12,0.00,,---,0.00,VWS V13.01,2013-04-16 16:33:00,
2013-04-16 12:38:00,66.7,12.5,29.92,South,187,0.0,8.7,12,0.00,,---,0.00,VWS V13.01,2013-04-16 16:38:00,
2013-04-16 12:43:00,68.4,19.0,29.92,ESE,119,4.0,7.4,15,0.00,,---,0.00,VWS V13.01,2013-04-16 16:43:00,
2013-04-16 12:48:00,66.6,12.4,29.95,SE,142,0.0,7.4,12,0.00,,---,0.00,VWS V13.01,2013-04-16 16:48:00,
2013-04-16 12:53:00,68.2,18.8,29.95,SSW,193,0.0,7.4,15,0.00,,---,0.00,VWS V13.01,2013-04-16 16:53:00,
2013-04-16 12:58:00,69.4,19.8,29.95,SSW,207,8.7,9.8,15,0.00,,---,0.00,VWS V13.01,2013-04-16 16:58:00,
2013-04-16 13:04:00,67.5,13.1,29.92,SSE,164,0.0,8.7,12,0.00,,---,0.00,VWS V13.01,2013-04-16 17:04:00,
2013-04-16 13:09:00,68.9,14.2,29.92,SSW,206,0.0,8.9,12,0.00,,---,0.00,VWS V13.01,2013-04-16 17:09:00,
2013-04-16 13:14:00,67.8,13.4,29.92,WSW,248,0.0,8.9,12,0.00,,---,0.00,VWS V13.01,2013-04-16 17:14:00,
2013-04-16 13:19:00,68.0,13.5,29.92,ESE,117,5.1,8.9,12,0.00,,---,0.00,VWS V13.01,2013-04-16 17:19:00,
2013-04-16 13:24:00,65.7,13.5,29.92,SE,131,5.1,7.8,13,0.00,,---,0.00,VWS V13.01,2013-04-16 17:24:00,
2013-04-16 13:29:00,66.2,12.1,29.92,South,172,3.6,7.8,12,0.00,,---,0.00,VWS V13.01,2013-04-16 17:29:00,
2013-04-16 13:34:00,65.8,13.6,29.92,SSW,199,2.7,8.3,13,0.00,,---,0.00,VWS V13.01,2013-04-16 17:34:00,
2013-04-16 13:39:00,67.3,13.0,29.92,West,272,3.1,3.1,12,0.00,,---,0.00,VWS V13.01,2013-04-16 17:39:00,
2013-04-16 13:44:00,64.9,12.9,29.92,SW,226,4.5,12.1,13,0.00,,---,0.00,VWS V13.01,2013-04-16 17:44:00,
2013-04-16 13:49:00,63.5,11.8,29.92,South,178,4.5,12.1,13,0.00,,---,0.00,VWS V13.01,2013-04-16 17:49:00,
2013-04-16 13:54:00,63.5,11.8,29.92,SSE,168,5.6,12.1,13,0.00,,---,0.00,VWS V13.01,2013-04-16 17:54:00,
2013-04-16 14:00:00,63.0,11.4,29.92,SW,219,8.7,9.8,13,0.00,,---,0.00,VWS V13.01,2013-04-16 18:00:00,
2013-04-16 14:05:00,62.6,11.1,29.92,SE,127,2.7,9.8,13,0.00,,---,0.00,VWS V13.01,2013-04-16 18:05:00,
2013-04-16 14:10:00,61.7,12.1,29.92,SW,222,4.7,9.8,14,0.00,,---,0.00,VWS V13.01,2013-04-16 18:10:00,
2013-04-16 14:15:00,61.9,12.2,29.92,West,278,0.0,9.8,14,0.00,,---,0.00,VWS V13.01,2013-04-16 18:15:00,
2013-04-16 14:20:00,61.9,12.2,29.92,West,280,0.0,0.0,14,0.00,,---,0.00,VWS V13.01,2013-04-16 18:20:00,
2013-04-16 14:25:00,62.2,12.5,29.92,SSE,155,0.0,5.1,14,0.00,,---,0.00,VWS V13.01,2013-04-16 18:25:00,
2013-04-16 14:30:00,62.1,12.3,29.92,SSW,198,0.0,6.5,14,0.00,,---,0.00,VWS V13.01,2013-04-16 18:30:00,
2013-04-16 14:36:00,61.2,11.6,29.92,SSE,157,3.1,6.5,14,0.00,,---,0.00,VWS V13.01,2013-04-16 18:36:00,
2013-04-16 14:41:00,61.5,11.9,29.92,SE,144,4.5,4.5,14,0.00,,---,0.00,VWS V13.01,2013-04-16 18:41:00,
2013-04-16 14:46:00,61.7,12.1,29.89,SSE,152,4.5,5.1,14,0.00,,---,0.00,VWS V13.01,2013-04-16 18:46:00,
2013-04-16 14:51:00,61.9,15.2,29.89,SSE,162,3.6,5.1,16,0.00,,---,0.00,VWS V13.01,2013-04-16 18:51:00,
2013-04-16 14:56:00,62.1,15.4,29.89,SSW,210,0.0,9.4,16,0.00,,---,0.00,VWS V13.01,2013-04-16 18:56:00,
2013-04-16 15:01:00,62.1,15.4,29.89,SSE,147,0.0,4.7,16,0.00,,---,0.00,VWS V13.01,2013-04-16 19:01:00,
2013-04-16 15:06:00,60.6,15.6,29.89,SSW,202,0.0,8.3,17,0.00,,---,0.00,VWS V13.01,2013-04-16 19:06:00,
2013-04-16 15:11:00,60.1,15.1,29.89,NW,311,0.0,8.3,17,0.00,,---,0.00,VWS V13.01,2013-04-16 19:11:00,
2013-04-16 15:16:00,59.7,14.9,29.89,SSE,159,0.0,8.3,17,0.00,,---,0.00,VWS V13.01,2013-04-16 19:16:00,
2013-04-16 15:22:00,59.7,14.9,29.89,SW,217,0.0,3.1,17,0.00,,---,0.00,VWS V13.01,2013-04-16 19:22:00,
2013-04-16 15:27:00,59.5,14.7,29.89,SSE,162,0.0,4.7,17,0.00,,---,0.00,VWS V13.01,2013-04-16 19:27:00,
2013-04-16 15:32:00,59.4,14.6,29.89,South,184,0.0,9.4,17,0.00,,---,0.00,VWS V13.01,2013-04-16 19:32:00,
2013-04-16 15:37:00,59.4,14.6,29.89,SSW,208,0.0,9.4,17,0.00,,---,0.00,VWS V13.01,2013-04-16 19:37:00,
2013-04-16 15:42:00,59.4,14.6,29.89,SSE,168,4.7,4.7,17,0.00,,---,0.00,VWS V13.01,2013-04-16 19:42:00,
2013-04-16 15:47:00,59.2,14.4,29.86,South,172,0.0,8.9,17,0.00,,---,0.00,VWS V13.01,2013-04-16 19:47:00,
2013-04-16 15:52:00,58.8,14.1,29.86,SSE,148,0.0,8.9,17,0.00,,---,0.00,VWS V13.01,2013-04-16 19:52:00,
2013-04-16 15:57:00,57.9,13.4,29.86,SE,137,0.0,8.9,17,0.00,,---,0.00,VWS V13.01,2013-04-16 19:57:00,
2013-04-16 16:03:00,57.4,18.9,29.86,SW,217,0.0,0.0,22,0.00,,---,0.00,VWS V13.01,2013-04-16 20:03:00,
2013-04-16 16:08:00,57.0,21.6,29.86,WSW,254,0.0,0.0,25,0.00,,---,0.00,VWS V13.01,2013-04-16 20:08:00,
2013-04-16 16:13:00,56.7,22.2,29.86,WNW,285,0.0,0.0,26,0.00,,---,0.00,VWS V13.01,2013-04-16 20:13:00,
2013-04-16 16:18:00,56.5,22.0,29.86,WSW,237,0.0,4.0,26,0.00,,---,0.00,VWS V13.01,2013-04-16 20:18:00,
2013-04-16 16:23:00,56.5,21.1,29.86,South,176,0.0,0.0,25,0.00,,---,0.00,VWS V13.01,2013-04-16 20:23:00,
2013-04-16 16:28:00,56.5,21.1,29.86,SW,224,0.0,0.0,25,0.00,,---,0.00,VWS V13.01,2013-04-16 20:28:00,
2013-04-16 16:33:00,57.0,21.6,29.86,WSW,258,5.6,5.6,25,0.00,,---,0.00,VWS V13.01,2013-04-16 20:33:00,
2013-04-16 16:39:00,57.4,20.9,29.86,SSW,199,0.0,0.0,24,0.00,,---,0.00,VWS V13.01,2013-04-16 20:39:00,
2013-04-16 16:45:00,57.9,21.4,29.86,SSE,153,0.0,0.0,24,0.00,,---,0.00,VWS V13.01,2013-04-16 20:45:00,
2013-04-16 16:50:00,58.1,21.5,29.86,WSW,250,0.0,6.5,24,0.00,,---,0.00,VWS V13.01,2013-04-16 20:50:00,
2013-04-16 16:55:00,58.6,19.9,29.86,SSE,156,0.0,6.5,22,0.00,,---,0.00,VWS V13.01,2013-04-16 20:55:00,
2013-04-16 17:00:00,59.0,20.2,29.86,SE,140,0.0,0.0,22,0.00,,---,0.00,VWS V13.01,2013-04-16 21:00:00,
2013-04-16 17:05:00,59.0,16.8,29.86,SSE,150,0.0,2.7,19,0.00,,---,0.00,VWS V13.01,2013-04-16 21:05:00,
2013-04-16 17:10:00,58.5,16.4,29.86,SSE,161,0.0,5.6,19,0.00,,---,0.00,VWS V13.01,2013-04-16 21:10:00,
2013-04-16 17:25:00,59.2,17.0,29.83,South,187,0.0,0.0,19,0.00,,---,0.00,VWS V13.01,2013-04-16 21:25:00,
2013-04-16 17:30:00,59.2,17.0,29.83,ESE,116,0.0,6.9,19,0.00,,---,0.00,VWS V13.01,2013-04-16 21:30:00,
2013-04-16 17:35:00,59.2,17.0,29.83,WSW,240,6.5,10.3,19,0.00,,---,0.00,VWS V13.01,2013-04-16 21:35:00,
2013-04-16 17:41:00,59.0,16.8,29.83,SE,146,0.0,0.0,19,0.00,,---,0.00,VWS V13.01,2013-04-16 21:41:00,
2013-04-16 17:46:00,58.8,16.7,29.83,West,262,0.0,5.1,19,0.00,,---,0.00,VWS V13.01,2013-04-16 21:46:00,
2013-04-16 17:51:00,58.6,19.9,29.83,South,187,0.0,6.0,22,0.00,,---,0.00,VWS V13.01,2013-04-16 21:51:00,
2013-04-16 17:56:00,58.3,19.6,29.83,SSE,147,0.0,8.3,22,0.00,,---,0.00,VWS V13.01,2013-04-16 21:56:00,
2013-04-16 18:01:00,58.3,19.6,29.80,WSW,251,0.0,6.5,22,0.00,,---,0.00,VWS V13.01,2013-04-16 22:01:00,
2013-04-16 18:06:00,57.9,19.3,29.80,SE,141,0.0,6.9,22,0.00,,---,0.00,VWS V13.01,2013-04-16 22:06:00,
2013-04-16 18:12:00,57.6,21.1,29.80,SW,228,0.0,7.4,24,0.00,,---,0.00,VWS V13.01,2013-04-16 22:12:00,
2013-04-16 18:17:00,57.2,20.8,29.80,WSW,247,3.6,8.3,24,0.00,,---,0.00,VWS V13.01,2013-04-16 22:17:00,
2013-04-16 18:22:00,57.2,21.7,29.80,South,182,0.0,3.1,25,0.00,,---,0.00,VWS V13.01,2013-04-16 22:22:00,
2013-04-16 18:27:00,57.0,21.6,29.80,SSW,201,3.1,4.5,25,0.00,,---,0.00,VWS V13.01,2013-04-16 22:27:00,
2013-04-16 18:32:00,56.8,21.4,29.80,SSW,207,0.0,6.5,25,0.00,,---,0.00,VWS V13.01,2013-04-16 22:32:00,
2013-04-16 18:37:00,56.8,21.4,29.80,SSW,194,0.0,13.0,25,0.00,,---,0.00,VWS V13.01,2013-04-16 22:37:00,
2013-04-16 18:42:00,56.8,21.4,29.80,WNW,303,3.1,7.4,25,0.00,,---,0.00,VWS V13.01,2013-04-16 22:42:00,
2013-04-16 18:47:00,56.7,21.3,29.80,SSE,148,0.0,7.4,25,0.00,,---,0.00,VWS V13.01,2013-04-16 22:47:00,
2013-04-16 18:52:00,56.7,21.3,29.80,West,273,0.0,7.4,25,0.00,,---,0.00,VWS V13.01,2013-04-16 22:52:00,
2013-04-16 18:57:00,56.7,21.3,29.80,WSW,245,0.0,7.4,25,0.00,,---,0.00,VWS V13.01,2013-04-16 22:57:00,
2013-04-16 19:02:00,56.7,21.3,29.77,SW,232,0.0,0.0,25,0.00,,---,0.00,VWS V13.01,2013-04-16 23:02:00,
2013-04-16 19:08:00,56.5,21.1,29.77,WSW,239,0.0,0.0,25,0.00,,---,0.00,VWS V13.01,2013-04-16 23:08:00,
2013-04-16 19:13:00,56.3,21.0,29.77,SSE,160,0.0,0.0,25,0.00,,---,0.00,VWS V13.01,2013-04-16 23:13:00,
2013-04-16 19:18:00,56.3,21.0,29.77,SW,230,0.0,6.0,25,0.00,,---,0.00,VWS V13.01,2013-04-16 23:18:00,
2013-04-16 19:23:00,56.1,20.8,29.77,SSE,162,0.0,3.6,25,0.00,,---,0.00,VWS V13.01,2013-04-16 23:23:00,
2013-04-16 19:28:00,56.1,20.8,29.77,SW,228,0.0,6.9,25,0.00,,---,0.00,VWS V13.01,2013-04-16 23:28:00,
2013-04-16 19:33:00,55.9,20.6,29.77,SSW,206,7.8,7.8,25,0.00,,---,0.00,VWS V13.01,2013-04-16 23:33:00,
2013-04-16 19:38:00,55.9,20.6,29.77,WSW,256,0.0,7.8,25,0.00,,---,0.00,VWS V13.01,2013-04-16 23:38:00,
2013-04-16 19:43:00,55.8,20.5,29.77,WSW,239,0.0,0.0,25,0.00,,---,0.00,VWS V13.01,2013-04-16 23:43:00,
2013-04-16 19:48:00,55.6,20.3,29.77,SW,217,0.0,3.1,25,0.00,,---,0.00,VWS V13.01,2013-04-16 23:48:00,
2013-04-16 19:54:00,55.6,20.3,29.77,WSW,247,0.0,5.1,25,0.00,,---,0.00,VWS V13.01,2013-04-16 23:54:00,
2013-04-16 19:59:00,55.9,20.6,29.77,West,269,0.0,6.5,25,0.00,,---,0.00,VWS V13.01,2013-04-16 23:59:00,
2013-04-16 20:04:00,55.9,20.6,29.80,West,263,0.0,0.0,25,0.00,,---,0.00,VWS V13.01,2013-04-17 00:04:00,
2013-04-16 20:09:00,56.1,20.8,29.80,West,262,0.0,0.0,25,0.00,,---,0.00,VWS V13.01,2013-04-17 00:09:00,
2013-04-16 20:14:00,56.1,20.8,29.80,WNW,301,0.0,0.0,25,0.00,,---,0.00,VWS V13.01,2013-04-17 00:14:00,
2013-04-16 20:19:00,56.3,21.0,29.80,West,274,0.0,0.0,25,0.00,,---,0.00,VWS V13.01,2013-04-17 00:19:00,
2013-04-16 20:24:00,56.3,21.0,29.80,WSW,252,0.0,0.0,25,0.00,,---,0.00,VWS V13.01,2013-04-17 00:24:00,
2013-04-16 20:29:00,56.3,21.0,29.80,ESE,116,0.0,4.5,25,0.00,,---,0.00,VWS V13.01,2013-04-17 00:29:00,
2013-04-16 20:34:00,56.5,21.1,29.80,WSW,237,0.0,4.5,25,0.00,,---,0.00,VWS V13.01,2013-04-17 00:34:00,
2013-04-16 20:39:00,56.5,21.1,29.80,South,172,0.0,0.0,25,0.00,,---,0.00,VWS V13.01,2013-04-17 00:39:00,
2013-04-16 20:44:00,56.7,21.3,29.80,West,267,0.0,4.7,25,0.00,,---,0.00,VWS V13.01,2013-04-17 00:44:00,
2013-04-16 20:49:00,56.7,21.3,29.80,SSE,160,0.0,4.7,25,0.00,,---,0.00,VWS V13.01,2013-04-17 00:49:00,
2013-04-16 20:54:00,56.7,21.3,29.80,West,277,0.0,4.7,25,0.00,,---,0.00,VWS V13.01,2013-04-17 00:54:00,
2013-04-16 21:00:00,56.7,21.3,29.80,SW,227,0.0,0.0,25,0.00,,---,0.00,VWS V13.01,2013-04-17 01:00:00,
2013-04-16 21:05:00,56.7,21.3,29.80,West,274,4.7,5.6,25,0.00,,---,0.00,VWS V13.01,2013-04-17 01:05:00,
2013-04-16 21:10:00,56.7,21.3,29.80,SW,221,5.6,8.3,25,0.00,,---,0.00,VWS V13.01,2013-04-17 01:10:00,
2013-04-16 21:15:00,56.7,21.3,29.80,West,266,0.0,8.7,25,0.00,,---,0.00,VWS V13.01,2013-04-17 01:15:00,
2013-04-16 21:20:00,56.7,21.3,29.80,SSW,208,0.0,7.4,25,0.00,,---,0.00,VWS V13.01,2013-04-17 01:20:00,
2013-04-16 21:25:00,56.7,22.2,29.80,SSE,157,0.0,7.4,26,0.00,,---,0.00,VWS V13.01,2013-04-17 01:25:00,
2013-04-16 21:30:00,56.3,22.8,29.80,South,182,0.0,7.4,27,0.00,,---,0.00,VWS V13.01,2013-04-17 01:30:00,
2013-04-16 21:35:00,55.6,23.9,29.80,SW,220,0.0,7.4,29,0.00,,---,0.00,VWS V13.01,2013-04-17 01:35:00,
2013-04-16 21:40:00,55.2,25.9,29.80,South,180,4.7,4.7,32,0.00,,---,0.00,VWS V13.01,2013-04-17 01:40:00,
2013-04-16 21:45:00,55.0,26.5,29.77,SW,233,0.0,6.9,33,0.00,,---,0.00,VWS V13.01,2013-04-17 01:45:00,
2013-04-16 21:51:00,54.9,27.8,29.77,WSW,257,0.0,7.4,35,0.00,,---,0.00,VWS V13.01,2013-04-17 01:51:00,
2013-04-16 21:56:00,54.7,28.3,29.77,SW,224,0.0,7.4,36,0.00,,---,0.00,VWS V13.01,2013-04-17 01:56:00,
2013-04-16 22:01:00,54.5,28.8,29.77,SSE,154,0.0,8.9,37,0.00,,---,0.00,VWS V13.01,2013-04-17 02:01:00,
2013-04-16 22:06:00,54.3,28.6,29.77,NW,305,0.0,8.9,37,0.00,,---,0.00,VWS V13.01,2013-04-17 02:06:00,
2013-04-16 22:11:00,54.1,28.5,29.77,SW,236,0.0,10.3,37,0.00,,---,0.00,VWS V13.01,2013-04-17 02:11:00,
2013-04-16 22:16:00,53.8,28.8,29.77,West,281,0.0,10.3,38,0.00,,---,0.00,VWS V13.01,2013-04-17 02:16:00,
2013-04-16 22:21:00,53.8,28.8,29.77,SW,221,0.0,0.0,38,0.00,,---,0.00,VWS V13.01,2013-04-17 02:21:00,
2013-04-16 22:26:00,53.6,28.6,29.77,SW,232,0.0,0.0,38,0.00,,---,0.00,VWS V13.01,2013-04-17 02:26:00,
2013-04-16 22:31:00,53.6,28.6,29.77,SW,217,0.0,4.5,38,0.00,,---,0.00,VWS V13.01,2013-04-17 02:31:00,
2013-04-16 22:37:00,53.4,29.1,29.77,West,264,0.0,4.5,39,0.00,,---,0.00,VWS V13.01,2013-04-17 02:37:00,
2013-04-16 22:42:00,53.6,28.6,29.77,SW,236,0.0,0.0,38,0.00,,---,0.00,VWS V13.01,2013-04-17 02:42:00,
2013-04-16 22:47:00,53.4,28.5,29.77,South,185,0.0,0.0,38,0.00,,---,0.00,VWS V13.01,2013-04-17 02:47:00,
2013-04-16 22:52:00,53.2,28.3,29.77,South,176,0.0,6.9,38,0.00,,---,0.00,VWS V13.01,2013-04-17 02:52:00,
2013-04-16 22:57:00,53.1,28.1,29.77,SW,228,0.0,6.9,38,0.00,,---,0.00,VWS V13.01,2013-04-17 02:57:00,
2013-04-16 23:02:00,53.1,28.8,29.77,WSW,237,0.0,0.0,39,0.00,,---,0.00,VWS V13.01,2013-04-17 03:02:00,
2013-04-16 23:07:00,53.1,28.8,29.77,SW,229,0.0,0.0,39,0.00,,---,0.00,VWS V13.01,2013-04-17 03:07:00,
2013-04-16 23:12:00,53.2,28.9,29.77,SSE,167,0.0,0.0,39,0.00,,---,0.00,VWS V13.01,2013-04-17 03:12:00,
2013-04-16 23:17:00,53.2,28.9,29.77,SSE,165,0.0,0.0,39,0.00,,---,0.00,VWS V13.01,2013-04-17 03:17:00,
2013-04-16 23:22:00,53.4,28.5,29.77,South,179,0.0,0.0,38,0.00,,---,0.00,VWS V13.01,2013-04-17 03:22:00,
2013-04-16 23:27:00,53.4,28.5,29.77,SW,234,0.0,0.0,38,0.00,,---,0.00,VWS V13.01,2013-04-17 03:27:00,
2013-04-16 23:33:00,53.6,28.0,29.77,West,260,0.0,4.0,37,0.00,,---,0.00,VWS V13.01,2013-04-17 03:33:00,
2013-04-16 23:38:00,53.6,28.0,29.77,WSW,245,0.0,4.0,37,0.00,,---,0.00,VWS V13.01,2013-04-17 03:38:00,
2013-04-16 23:43:00,53.8,28.1,29.77,SW,225,0.0,0.0,37,0.00,,---,0.00,VWS V13.01,2013-04-17 03:43:00,
2013-04-16 23:48:00,53.8,28.1,29.77,WSW,256,0.0,0.0,37,0.00,,---,0.00,VWS V13.01,2013-04-17 03:48:00,
2013-04-16 23:53:00,53.8,27.5,29.77,WSW,239,0.0,0.0,36,0.00,,---,0.00,VWS V13.01,2013-04-17 03:53:00,
2013-04-16 23:58:00,53.8,27.5,29.77,West,268,0.0,0.0,36,0.00,,---,0.00,VWS V13.01,2013-04-17 03:58:00,